Waarnemingen

Advertentie
Mijn weer
Dunkerque, Frankrijk (7010): temperatuur & dauwpunt: 22.05.2017 06:00:00 - 28.05.2017 06:00:00 (CEST)Dunkerque, Frankrijk (7010): windsnelheid & windstoten: 22.05.2017 06:00:00 - 28.05.2017 06:00:00 (CEST)Dunkerque, Frankrijk (7010): windrichting: 22.05.2017 06:00:00 - 28.05.2017 06:00:00 (CEST)Dunkerque, Frankrijk (7010): luchtdruk: 22.05.2017 06:00:00 - 28.05.2017 06:00:00 (CEST)Dunkerque, Frankrijk (7010): zicht: 22.05.2017 06:00:00 - 28.05.2017 06:00:00 (CEST)Dunkerque, Frankrijk (7010): neerslag: 22.05.2017 06:00:00 - 28.05.2017 06:00:00 (CEST)
Datum & Tijd tt [°C] td [°C] ff [km/u] ff [kn] fx [km/u] fx [kn] dd ppp [hPa] vv [km] rr [mm]
28.05.2017 06:00:00 14,5 12,4 8 4 13 7 ZW 1018,6 - 0,0
28.05.2017 05:00:00 14,6 12,1 7 4 10 6 ZZW 1018,5 - 0,0
28.05.2017 04:00:00 15,4 12,0 7 4 19 10 Z 1018,4 - 0,0
28.05.2017 03:00:00 16,1 12,5 8 4 19 10 WZW 1018,5 - 0,0
28.05.2017 02:00:00 16,6 12,3 5 3 14 8 WZW 1018,4 20 0,0
28.05.2017 01:00:00 17,2 12,1 6 3 15 8 ZZW 1018,3 - 0,0
28.05.2017 00:00:00 16,9 12,4 9 5 16 8 ZW 1018,1 - 0,0
27.05.2017 23:00:00 17,4 12,1 7 4 35 19 ZZW 1017,9 20 0,0
27.05.2017 22:00:00 17,3 12,8 14 8 31 17 W 1017,7 - 0,0
27.05.2017 21:00:00 17,9 13,4 21 11 35 19 W 1017,2 - 0,0
27.05.2017 20:00:00 19,2 13,1 27 14 36 20 W 1016,8 - 0,0
27.05.2017 19:00:00 20,7 13,6 21 11 49 26 ZW 1016,7 - 0,0
27.05.2017 18:00:00 20,1 15,1 18 10 39 21 WZW 1016,5 - 0,0
27.05.2017 17:00:00 19,0 14,5 24 13 46 25 W 1016,2 - 0,0
27.05.2017 16:00:00 19,3 14,3 33 18 55 30 W 1016,3 - 0,0
27.05.2017 15:00:00 19,5 14,7 40 22 61 33 W 1016,5 - 0,0
27.05.2017 14:00:00 21,8 15,9 23 12 34 19 WNW 1015,7 - 0,0
27.05.2017 13:00:00 21,6 16,5 8 4 25 14 ONO 1014,9 - 0,2
27.05.2017 12:00:00 22,9 15,5 16 9 40 22 W 1015,2 - 0,0
27.05.2017 11:00:00 25,0 15,0 24 13 34 18 Z 1014,1 20 0,0
27.05.2017 10:00:00 23,0 14,0 25 14 34 19 ZZO 1014,0 - 0,0
27.05.2017 09:00:00 21,5 12,9 24 13 35 19 ZZO 1014,5 - 0,0
27.05.2017 08:00:00 19,9 12,4 21 11 29 16 ZZO 1014,4 20 0,0
27.05.2017 07:00:00 18,4 11,7 15 8 20 11 ZZO 1014,7 - 0,0
27.05.2017 06:00:00 17,6 11,4 14 7 24 13 ZO 1014,6 - 0,0
27.05.2017 05:00:00 18,3 11,4 14 8 23 12 ZO 1014,6 - 0,0
27.05.2017 04:00:00 19,3 11,6 17 9 25 13 ZO 1015,0 - 0,0
27.05.2017 03:00:00 19,5 11,8 16 8 23 12 OZO 1014,9 - 0,0
27.05.2017 02:00:00 20,3 11,8 18 10 29 15 OZO 1014,8 20 0,0
27.05.2017 01:00:00 20,7 12,7 16 9 24 13 OZO 1014,9 - 0,0
27.05.2017 00:00:00 21,4 12,5 14 8 21 12 OZO 1015,4 - 0,0
26.05.2017 23:00:00 21,2 13,1 14 8 22 12 OZO 1015,4 - 0,0
26.05.2017 22:00:00 17,4 15,0 16 9 22 12 O 1015,2 - 0,0
26.05.2017 21:00:00 17,7 14,6 18 10 24 13 ONO 1015,3 - 0,0
26.05.2017 20:00:00 18,3 14,4 19 10 34 18 ONO 1015,5 20 0,0
26.05.2017 19:00:00 19,0 14,5 23 12 36 19 NO 1015,6 - 0,0
26.05.2017 18:00:00 27,5 10,7 22 12 37 20 ZO 1016,3 - 0,0
26.05.2017 17:00:00 23,6 11,3 19 10 37 20 O 1016,7 20 0,0
26.05.2017 16:00:00 21,4 14,5 23 12 35 19 NO 1017,3 - 0,0
26.05.2017 15:00:00 21,4 14,3 20 11 32 17 NO 1018,2 - 0,0
26.05.2017 14:00:00 21,5 14,4 20 11 41 22 NO 1018,8 20 0,0
26.05.2017 13:00:00 25,5 12,3 21 12 37 20 O 1019,3 - 0,0
26.05.2017 12:00:00 24,3 12,3 24 13 37 20 OZO 1019,9 - 0,0
26.05.2017 11:00:00 23,0 12,3 29 16 49 26 OZO 1020,4 20 0,0
26.05.2017 10:00:00 21,6 12,4 27 15 39 21 OZO 1020,7 - 0,0
26.05.2017 09:00:00 19,6 13,1 21 11 31 17 OZO 1021,0 - 0,0
26.05.2017 08:00:00 17,8 12,9 19 10 27 15 OZO 1020,9 20 0,0
26.05.2017 07:00:00 15,6 12,7 11 6 17 9 O 1020,9 - 0,0
26.05.2017 06:00:00 14,8 13,0 11 6 14 8 O 1021,0 - 0,0
26.05.2017 05:00:00 15,3 13,3 9 5 16 9 O 1021,0 - 0,0
26.05.2017 04:00:00 15,6 13,6 15 8 23 12 O 1021,0 - 0,0
26.05.2017 03:00:00 15,9 13,6 18 10 25 13 ONO 1021,1 - 0,0
26.05.2017 02:00:00 15,6 14,5 11 6 16 9 ONO 1021,5 20 0,0
26.05.2017 01:00:00 15,8 14,3 13 7 24 13 ONO 1021,9 - 0,0
26.05.2017 00:00:00 15,9 14,3 19 10 27 15 ONO 1021,9 - 0,0
25.05.2017 23:00:00 16,0 13,8 19 11 29 16 ONO 1022,1 20 0,0
25.05.2017 22:00:00 15,8 13,3 21 12 31 17 ONO 1022,1 - 0,0
25.05.2017 21:00:00 16,1 12,8 22 12 34 18 ONO 1022,0 - 0,0
25.05.2017 20:00:00 16,5 12,6 24 13 35 19 ONO 1022,2 - 0,0
25.05.2017 19:00:00 17,1 11,8 23 12 32 17 ONO 1022,6 - 0,0
25.05.2017 18:00:00 17,9 12,6 21 11 29 16 NO 1023,1 - 0,0
25.05.2017 17:00:00 18,3 12,1 24 13 30 16 NO 1023,5 - 0,0
25.05.2017 16:00:00 18,1 11,9 22 12 28 15 NO 1023,8 - 0,0
25.05.2017 15:00:00 18,4 12,4 17 9 24 13 NO 1024,3 - 0,0
25.05.2017 14:00:00 18,3 12,9 18 10 22 12 NO 1024,8 - 0,0
25.05.2017 13:00:00 18,3 13,4 16 9 21 11 NO 1025,1 - 0,0
25.05.2017 12:00:00 18,0 13,3 17 9 26 14 NO 1025,7 - 0,0
25.05.2017 11:00:00 17,8 13,7 18 10 21 12 NO 1025,9 15 0,0
25.05.2017 10:00:00 17,1 13,8 16 9 20 11 NO 1026,0 - 0,0
25.05.2017 09:00:00 16,7 14,0 11 6 16 8 NO 1025,6 - 0,0
25.05.2017 08:00:00 15,4 13,9 9 5 12 6 NO 1025,3 - 0,0
25.05.2017 07:00:00 14,5 13,9 6 3 11 6 NO 1025,2 - 0,0
25.05.2017 06:00:00 13,7 13,1 8 5 11 6 NO 1024,9 - 0,0
25.05.2017 05:00:00 13,7 12,9 6 3 8 4 NO 1025,0 - 0,0
25.05.2017 04:00:00 14,1 13,1 3 1 4 2 N 1025,3 - 0,0
25.05.2017 03:00:00 13,9 12,6 0 0 6 3 N 1025,4 - 0,0
25.05.2017 02:00:00 14,4 13,4 6 3 9 5 ONO 1025,6 - 0,0
25.05.2017 01:00:00 14,4 13,3 8 4 11 6 ONO 1025,9 - 0,0
25.05.2017 00:00:00 14,4 12,9 9 5 11 6 NO 1026,0 - 0,0
24.05.2017 23:00:00 14,6 13,0 9 5 11 6 NNO 1026,2 14 0,0
24.05.2017 22:00:00 14,9 12,8 8 4 14 7 NO 1026,0 - 0,0
24.05.2017 21:00:00 15,5 12,8 10 6 15 8 NNO 1025,9 - 0,0
24.05.2017 20:00:00 16,2 12,7 7 4 12 6 N 1025,8 12 0,0
24.05.2017 19:00:00 17,7 13,2 10 5 14 8 NW 1025,6 - 0,0
24.05.2017 18:00:00 18,9 13,1 11 6 15 8 WNW 1025,7 - 0,0
24.05.2017 17:00:00 18,5 12,9 12 6 18 10 NW 1026,1 15 0,0
24.05.2017 16:00:00 18,3 13,2 13 7 21 11 WNW 1026,3 - 0,0
24.05.2017 15:00:00 17,6 13,3 13 7 19 11 WNW 1026,3 - 0,0
24.05.2017 14:00:00 16,9 13,0 14 8 20 11 WNW 1026,3 - 0,0
24.05.2017 13:00:00 16,3 13,0 15 8 22 12 WNW 1026,5 - 0,0
24.05.2017 12:00:00 15,8 13,1 16 8 24 13 WNW 1026,4 - 0,0
24.05.2017 11:00:00 15,9 13,4 18 10 24 13 W 1026,3 12 0,0
24.05.2017 10:00:00 15,7 13,2 18 10 24 13 W 1026,0 - 0,0
24.05.2017 09:00:00 15,5 13,5 19 10 26 14 W 1025,6 - 0,0
24.05.2017 08:00:00 14,8 13,3 16 9 23 12 W 1025,3 14 0,0
24.05.2017 07:00:00 14,4 13,1 13 7 21 12 W 1024,6 - 0,0
24.05.2017 06:00:00 14,1 13,1 14 8 23 13 W 1024,2 - 0,0
24.05.2017 05:00:00 14,2 13,2 6 3 14 8 ZW 1024,2 - 0,0
24.05.2017 04:00:00 13,5 12,9 6 4 16 8 ZW 1024,1 - 0,0
24.05.2017 03:00:00 13,5 12,7 9 5 19 10 ZZW 1024,2 - 0,0
24.05.2017 02:00:00 14,0 12,7 10 5 20 11 ZZW 1024,4 18 0,0
24.05.2017 01:00:00 14,2 12,9 14 7 21 11 ZW 1024,3 - 0,0
24.05.2017 00:00:00 14,8 13,2 13 7 24 13 ZW 1024,3 - 0,0
23.05.2017 23:00:00 15,9 13,4 13 7 24 13 ZW 1024,0 18 0,0
23.05.2017 22:00:00 16,7 13,2 10 5 26 14 ZW 1023,6 - 0,0
23.05.2017 21:00:00 17,5 13,0 11 6 23 12 WZW 1023,3 - 0,0
23.05.2017 20:00:00 17,3 13,2 13 7 26 14 W 1023,0 18 0,0
23.05.2017 19:00:00 17,0 12,1 19 10 36 19 W 1022,7 - 0,0
23.05.2017 18:00:00 17,0 12,3 25 14 36 19 WNW 1022,7 - 0,0
23.05.2017 17:00:00 16,9 12,6 16 9 28 15 WNW 1022,6 15 0,0
23.05.2017 16:00:00 16,3 11,9 15 8 24 13 WNW 1022,6 - 0,0
23.05.2017 15:00:00 17,1 12,2 15 8 23 12 WNW 1022,4 - 0,0
23.05.2017 14:00:00 16,9 12,0 16 9 22 12 WNW 1022,5 20 0,0
23.05.2017 13:00:00 16,8 11,7 16 9 25 13 W 1022,1 - 0,0
23.05.2017 12:00:00 15,6 11,2 22 12 31 17 WNW 1022,1 - 0,0
23.05.2017 11:00:00 16,2 12,0 12 7 25 13 W 1021,1 20 0,0
23.05.2017 10:00:00 15,1 11,5 19 11 29 16 WNW 1020,3 - 0,0
23.05.2017 09:00:00 14,9 12,2 19 11 29 16 WNW 1019,3 - 0,0
23.05.2017 08:00:00 14,6 12,1 18 10 32 18 WNW 1018,4 20 0,0
23.05.2017 07:00:00 14,2 12,2 23 13 39 21 W 1018,0 - 0,0
23.05.2017 06:00:00 14,3 12,0 20 11 40 22 WZW 1017,1 - 0,0
23.05.2017 05:00:00 14,3 11,1 16 9 32 17 ZW 1016,2 20 0,0
23.05.2017 04:00:00 15,8 11,6 21 12 38 21 W 1016,0 - 0,0
23.05.2017 03:00:00 16,8 10,4 24 13 37 20 W 1015,7 - 0,0
23.05.2017 02:00:00 16,4 10,7 7 4 14 8 WZW 1015,3 - 0,0
23.05.2017 01:00:00 16,3 11,7 2 1 5 3 ZW 1015,3 - 0,0
23.05.2017 00:00:00 15,5 12,4 2 1 7 4 Z 1015,4 - 0,0
22.05.2017 23:00:00 15,2 12,5 4 2 8 4 NO 1015,9 25 0,0
22.05.2017 22:00:00 15,6 12,7 5 3 10 5 N 1015,8 - 0,0
22.05.2017 21:00:00 16,8 12,5 6 4 13 7 NO 1015,2 - 0,0
22.05.2017 20:00:00 17,5 12,4 11 6 16 9 ONO 1015,1 16 0,0
22.05.2017 19:00:00 17,7 12,8 11 6 16 9 ONO 1015,2 - 0,0
22.05.2017 18:00:00 18,4 12,4 10 5 19 10 ONO 1015,6 - 0,0
22.05.2017 17:00:00 19,0 12,5 13 7 19 10 NO 1015,8 12 0,0
22.05.2017 16:00:00 19,3 12,3 12 6 24 13 NO 1016,2 - 0,0
22.05.2017 15:00:00 19,6 12,4 16 8 22 12 NNO 1016,6 - 0,0
22.05.2017 14:00:00 23,9 8,3 13 7 26 14 ZZO 1016,8 18 0,0
22.05.2017 13:00:00 22,7 8,4 16 9 29 16 ZZO 1017,5 - 0,0
22.05.2017 12:00:00 22,3 9,8 14 7 22 12 ZO 1017,8 - 0,0
22.05.2017 11:00:00 20,5 10,9 11 6 17 9 OZO 1017,9 18 0,0
22.05.2017 10:00:00 18,4 9,7 11 6 17 9 ZO 1018,4 - 0,0
22.05.2017 09:00:00 16,4 8,6 13 7 19 10 ZZO 1018,7 - 0,0
22.05.2017 08:00:00 14,4 7,9 15 8 19 11 ZO 1018,8 - 0,0
22.05.2017 07:00:00 13,2 7,6 14 8 22 12 ZO 1018,8 - 0,0
22.05.2017 06:00:00 13,4 7,2 14 8 22 12 ZO 1018,8 - 0,0

tt = temperatuur
td = dauwpunt
ff = windsnelheid
fx = windstoten
dd = windrichting
ppp = luchtdruk
vv = zicht
rr = neerslag

Weerstations in de omgeving